Location: Gallinara
(44.0333°N, 8.2333°E)
Time: 17:12:49
(UTC+00:00)

Cosmos 2219 Rocket - Pass Details

Date: 25 September 2020
Orbit: 827 x 847 km, 71.0° (Epoch: 30 October)

Event Time Altitude Azimuth Distance (km) Brightness Sun altitude
Rises 03:16:38 0° 168° (SSE) 3,382 5.2 -22.2°
Reaches altitude 10° 03:19:26 10° 156° (SSE) 2,455 4.6 -21.7°
Maximum altitude 03:23:59 26° 102° (ESE) 1,624 4.3 -20.9°
Drops below altitude 10° 03:28:32 10° 48° (NE) 2,476 5.6 -20.2°
Sets 03:31:22 0° 36° (NE) 3,417 6.3 -19.7°
